Bangkok (Don Mueang), Thailand

7:42 PM +07 on May 30, 2017 (GMT +0700)
Bangkok International

Weather History for VTBD - June, 2013

Change the Weather History Date:

Saturday, June 22, 2013

  Actual Average Record
Temperature  
Mean Temperature 88 °F -  
Max Temperature 94 °F 90 °F 98 °F (1997)
Min Temperature 82 °F 77 °F 75 °F (1997)
Cooling Degree Days 23    
Growing Degree Days 38 (Base 50)    
Moisture  
Dew Point 76 °F    
Average Humidity 72    
Maximum Humidity 84    
Minimum Humidity 47    
Precipitation  
Precipitation 0.04 in 0.19 in - ()
Sea Level Pressure  
Sea Level Pressure 29.65 in    
Wind  
Wind Speed 4 mph ()    
Max Wind Speed 13 mph    
Max Gust Speed -    
Visibility 6.1 miles    
Events Rain    
Averages and records for this station are not official NWS values.
T = Trace of Precipitation, MM = Missing Value Source: Averaged Metar Reports

Daily Weather History Graph

Daily Weather History Graph

Search for Another Location

Airport or City:

Trip Planner

Search our weather history database for the weather conditions in past years. The results will help you decide how hot, cold, wet, or windy it might be!

Date:

Astronomy

Jun. 22, 2013 Rise Set
Actual Time 5:51 AM +07 6:48 PM +07
Civil Twilight 5:27 AM +07 7:11 PM +07
Nautical Twilight 4:59 AM +07 7:39 PM +07
Astronomical Twilight 4:31 AM +07 8:07 PM +07
Moon 5:38 PM +07 (6/22) 4:22 AM +07 (6/22)
Length of Visible Light 13h 43m
Length of Day
12h 56m
Waxing Gibbous, 98% of the Moon is Illuminated
Jun 22
Waxing Gibbous
Jun 23
Full
Jun 30
Last Quarter
Jul 8
New
Jul 16
First Quarter

Hourly Weather History & Observations

Time (+07) Temp. Heat Index Dew Point Humidity Pressure Visibility Wind Dir Wind Speed Gust Speed Precip Events Conditions
12:00 AM 84.2 °F 92.3 °F 75.2 °F 74% 29.68 in 6.2 mi WNW 3.5 mph - N/A   Mostly Cloudy
12:30 AM 84.2 °F 92.3 °F 75.2 °F 74% 29.68 in 6.2 mi ESE 3.5 mph - N/A   Mostly Cloudy
1:00 AM 84 °F - 76 °F 72% 29.68 in 6 mi Calm Calm - -   Scattered Clouds
1:00 AM 84.2 °F 90.9 °F 73.4 °F 70% 29.68 in 6.2 mi Calm Calm - N/A   Mostly Cloudy
1:30 AM 84.2 °F 90.9 °F 73.4 °F 70% 29.68 in 6.2 mi Calm Calm - N/A   Mostly Cloudy
2:00 AM 84.2 °F 90.9 °F 73.4 °F 70% 29.65 in 6.2 mi Calm Calm - N/A   Mostly Cloudy
2:30 AM 84.2 °F 90.9 °F 73.4 °F 70% 29.65 in 6.2 mi Calm Calm - N/A   Mostly Cloudy
3:00 AM 84.2 °F 92.3 °F 75.2 °F 74% 29.65 in 6.2 mi Calm Calm - N/A   Mostly Cloudy
3:30 AM 82.4 °F 90.9 °F 77.0 °F 84% 29.65 in 6.2 mi Variable 2.3 mph - N/A   Mostly Cloudy
4:00 AM 82.4 °F 90.9 °F 77.0 °F 84% 29.65 in 5.6 mi Calm Calm - N/A   Mostly Cloudy
4:30 AM 82.4 °F 90.9 °F 77.0 °F 84% 29.65 in 5.6 mi Variable 1.2 mph - N/A   Mostly Cloudy
5:00 AM 82.4 °F 90.9 °F 77.0 °F 84% 29.65 in 5.6 mi Calm Calm - N/A   Mostly Cloudy
5:30 AM 82.4 °F 90.9 °F 77.0 °F 84% 29.65 in 5.6 mi SE 3.5 mph - N/A   Mostly Cloudy
6:00 AM 82.4 °F 90.9 °F 77.0 °F 84% 29.65 in 5.6 mi SSE 3.5 mph - N/A   Mostly Cloudy
6:30 AM 82.4 °F 90.9 °F 77.0 °F 84% 29.65 in 5.6 mi ESE 2.3 mph - N/A Rain Light Rain
7:00 AM 82 °F - 78 °F 83% 29.67 in 6 mi SSE 2.3 mph - - Rain Light Rain
7:00 AM 82.4 °F 90.9 °F 77.0 °F 84% 29.65 in 5.6 mi ESE 2.3 mph - N/A   Mostly Cloudy
7:30 AM 82.4 °F 90.9 °F 77.0 °F 84% 29.68 in 5.6 mi WNW 2.3 mph - N/A   Mostly Cloudy
8:00 AM 84.2 °F 94.1 °F 77.0 °F 79% 29.68 in 6.2 mi West 2.3 mph - N/A   Mostly Cloudy
8:30 AM 84.2 °F 94.1 °F 77.0 °F 79% 29.68 in 6.2 mi West 3.5 mph - N/A   Mostly Cloudy
9:00 AM 86.0 °F 96.9 °F 77.0 °F 74% 29.68 in 6.2 mi West 4.6 mph - N/A   Mostly Cloudy
9:30 AM 86.0 °F 95.1 °F 75.2 °F 70% 29.68 in 6.2 mi South 3.5 mph - N/A   Mostly Cloudy
10:00 AM 87.8 °F 97.6 °F 75.2 °F 66% 29.68 in 6.2 mi West 8.1 mph - N/A   Mostly Cloudy
10:30 AM 87.8 °F 95.6 °F 73.4 °F 62% 29.68 in 6.2 mi West 4.6 mph - N/A   Mostly Cloudy
11:00 AM 89.6 °F 99.8 °F 75.2 °F 62% 29.68 in 6.2 mi West 4.6 mph - N/A   Mostly Cloudy
11:30 AM 89.6 °F 99.8 °F 75.2 °F 62% 29.68 in 6.2 mi WSW 5.8 mph - N/A   Mostly Cloudy
12:00 PM 91.4 °F 102.5 °F 75.2 °F 59% 29.65 in 6.2 mi West 9.2 mph - N/A   Mostly Cloudy
12:30 PM 91.4 °F 102.5 °F 75.2 °F 59% 29.65 in 6.2 mi West 12.7 mph - N/A   Mostly Cloudy
1:00 PM 92 °F - 74 °F 47% 29.66 in 6 mi SSW 11.5 mph - -   Scattered Clouds
1:00 PM 91.4 °F 100.1 °F 73.4 °F 55% 29.65 in 6.2 mi SSW 11.5 mph - N/A   Mostly Cloudy
1:30 PM 93.2 °F 102.4 °F 73.4 °F 52% 29.62 in 6.2 mi West 8.1 mph - N/A   Mostly Cloudy
2:00 PM 93.2 °F 105.0 °F 75.2 °F 56% 29.62 in 6.2 mi SW 6.9 mph - N/A   Mostly Cloudy
2:30 PM 95.0 °F 104.5 °F 73.4 °F 49% 29.59 in 6.2 mi South 12.7 mph - N/A   Mostly Cloudy
3:00 PM 93.2 °F 105.0 °F 75.2 °F 56% 29.62 in 6.2 mi SSW 10.4 mph - N/A   Mostly Cloudy
3:30 PM 91.4 °F 102.5 °F 75.2 °F 59% 29.62 in 6.2 mi West 10.4 mph - N/A   Mostly Cloudy
4:00 PM 89.6 °F 102.2 °F 77.0 °F 66% 29.59 in 6.2 mi West 9.2 mph - N/A Rain Light Rain
4:30 PM 87.8 °F 99.7 °F 77.0 °F 70% 29.59 in 6.2 mi West 4.6 mph - N/A   Mostly Cloudy
5:00 PM 87.8 °F 99.7 °F 77.0 °F 70% 29.59 in 6.2 mi West 11.5 mph - N/A Rain Light Rain
5:30 PM 87.8 °F 99.7 °F 77.0 °F 70% 29.59 in 6.2 mi West 8.1 mph - N/A Rain Light Rain
6:00 PM 87.8 °F 102.5 °F 78.8 °F 75% 29.62 in 6.2 mi West 8.1 mph - N/A   Mostly Cloudy
6:30 PM 86.0 °F 99.3 °F 78.8 °F 79% 29.62 in 6.2 mi WSW 9.2 mph - N/A   Mostly Cloudy
7:00 PM 86 °F - 77 °F 68% 29.65 in 6 mi South 6.9 mph - -   Partly Cloudy
7:00 PM 86.0 °F 96.9 °F 77.0 °F 74% 29.62 in 6.2 mi South 6.9 mph - N/A   Mostly Cloudy
7:30 PM 84.2 °F 94.1 °F 77.0 °F 79% 29.62 in 6.2 mi WSW 5.8 mph - N/A   Mostly Cloudy
8:00 PM 84.2 °F 96.1 °F 78.8 °F 84% 29.62 in 6.2 mi South 8.1 mph - N/A   Mostly Cloudy
8:30 PM 84.2 °F 94.1 °F 77.0 °F 79% 29.65 in 6.2 mi WSW 10.4 mph - N/A   Mostly Cloudy
9:00 PM 82.4 °F 89.5 °F 75.2 °F 79% 29.65 in 6.2 mi SW 8.1 mph - N/A   Mostly Cloudy
9:30 PM 82.4 °F 89.5 °F 75.2 °F 79% 29.65 in 6.2 mi SW 5.8 mph - N/A   Mostly Cloudy
10:00 PM 82.4 °F 89.5 °F 75.2 °F 79% 29.68 in 6.2 mi South 5.8 mph - N/A   Mostly Cloudy
10:30 PM 82.4 °F 89.5 °F 75.2 °F 79% 29.68 in 6.2 mi South 4.6 mph - N/A   Mostly Cloudy
11:00 PM 82.4 °F 89.5 °F 75.2 °F 79% 29.71 in 6.2 mi SW 6.9 mph - N/A Rain Light Rain
11:30 PM 82.4 °F 90.9 °F 77.0 °F 84% 29.71 in 6.2 mi WSW 8.1 mph - N/A Rain Light Rain